TimeEDT,TemperatureF,Dew PointF,Humidity,Sea Level PressureIn,VisibilityMPH,Wind Direction,Wind SpeedMPH,Gust SpeedMPH,PrecipitationIn,Events,Conditions,WindDirDegrees,DateUTC
12:54 AM,46.0,43.0,89,30.14,10.0,Calm,Calm,-,N/A,,Overcast,0,2012-10-09 04:54:00
1:54 AM,46.0,43.0,89,30.14,10.0,Calm,Calm,-,N/A,,Overcast,0,2012-10-09 05:54:00
2:54 AM,46.9,44.1,90,30.13,10.0,Calm,Calm,-,N/A,,Overcast,0,2012-10-09 06:54:00
4:54 AM,46.9,43.0,86,30.12,10.0,North,3.5,-,N/A,,Overcast,350,2012-10-09 08:54:00
5:54 AM,46.9,43.0,86,30.12,10.0,Calm,Calm,-,N/A,,Overcast,0,2012-10-09 09:54:00
6:54 AM,46.9,44.1,90,30.13,10.0,Calm,Calm,-,N/A,,Overcast,0,2012-10-09 10:54:00
7:54 AM,46.9,44.1,90,30.15,10.0,NNW,4.6,-,N/A,,Overcast,330,2012-10-09 11:54:00
8:11 AM,48.2,44.6,87,30.16,10.0,NNW,5.8,-,N/A,,Overcast,330,2012-10-09 12:11:00
8:33 AM,48.2,44.6,87,30.17,10.0,NW,4.6,-,N/A,,Overcast,310,2012-10-09 12:33:00
8:54 AM,48.9,44.1,83,30.16,10.0,North,3.5,-,N/A,,Overcast,10,2012-10-09 12:54:00
9:54 AM,51.1,43.0,74,30.16,10.0,North,5.8,-,N/A,,Scattered Clouds,350,2012-10-09 13:54:00
10:10 AM,51.8,42.8,71,30.17,10.0,North,6.9,-,N/A,,Mostly Cloudy,350,2012-10-09 14:10:00
10:54 AM,53.1,42.1,66,30.15,10.0,North,6.9,-,N/A,,Overcast,350,2012-10-09 14:54:00
11:54 AM,53.1,42.1,66,30.15,10.0,Calm,Calm,-,N/A,,Overcast,0,2012-10-09 15:54:00
12:54 PM,54.0,42.1,64,30.12,10.0,Calm,Calm,-,N/A,,Overcast,0,2012-10-09 16:54:00
1:54 PM,57.0,42.1,57,30.10,10.0,Calm,Calm,-,N/A,,Mostly Cloudy,0,2012-10-09 17:54:00
2:40 PM,57.2,44.6,63,30.10,10.0,Variable,5.8,-,N/A,,Scattered Clouds,0,2012-10-09 18:40:00
2:54 PM,57.0,45.0,64,30.08,10.0,South,8.1,-,N/A,,Clear,180,2012-10-09 18:54:00
3:54 PM,55.9,44.1,64,30.08,10.0,SSE,6.9,-,N/A,,Partly Cloudy,150,2012-10-09 19:54:00
4:54 PM,55.9,45.0,67,30.07,10.0,SSE,6.9,-,N/A,,Clear,160,2012-10-09 20:54:00
5:54 PM,55.0,46.0,72,30.06,10.0,South,6.9,-,N/A,,Clear,170,2012-10-09 21:54:00
6:54 PM,52.0,46.0,80,30.08,10.0,SSE,8.1,-,N/A,,Clear,160,2012-10-09 22:54:00
7:44 PM,50.0,46.4,87,30.10,10.0,South,6.9,-,N/A,,Mostly Cloudy,170,2012-10-09 23:44:00
7:54 PM,50.0,46.0,86,30.09,10.0,SSE,8.1,-,N/A,,Overcast,160,2012-10-09 23:54:00
8:54 PM,51.1,46.0,83,30.09,10.0,SE,3.5,-,N/A,,Overcast,140,2012-10-10 00:54:00
9:12 PM,51.8,46.4,82,30.11,10.0,Calm,Calm,-,N/A,,Overcast,0,2012-10-10 01:12:00
9:54 PM,51.1,46.0,83,30.09,10.0,SE,3.5,-,N/A,,Overcast,140,2012-10-10 01:54:00
10:54 PM,50.0,46.0,86,30.10,10.0,SSE,5.8,-,N/A,,Overcast,150,2012-10-10 02:54:00